Location: Unspecified
(49.2170°N, 0.0000°E)
Time: 10:04:47
(UTC+00:00)

Vanguard 2 Rocket - Pass Details

Date: 22 January 2021
Orbit: 554 x 3326 km, 32.9° (Epoch: 25 February)

Event Time Altitude Azimuth Distance (km) Brightness Sun altitude
Rises 19:56:07 0° 255° (WSW) 4,164 11.2 -31.6°
Maximum altitude 20:03:07 10° 209° (SSW) 2,431 9.3 -32.7°
Drops below altitude 10° 20:03:13 10° 208° (SSW) 2,421 9.3 -32.7°
Enters shadow 20:03:58 10° 200° (SSW) 2,373 9.1 -32.8°
